Location: Wolf Lake
(46.8518°N, 80.6381°W)
Time: 11:08:03
(UTC-04:00)

ISS - Pass Details

Date: 23 March 2026
Orbit: 416 x 425 km, 51.6° (Epoch: 19 April)

Event Time Altitude Azimuth Distance (km) Brightness Sun altitude
Rises 21:08:31 0° 295° (WNW) 2,388 1.9 -15.7°
Reaches altitude 10° 21:10:38 10° 298° (WNW) 1,519 0.4 -16.0°
Maximum altitude 21:14:02 70° 22° (NNE) 455 -3.7 -16.6°
Enters shadow 21:14:57 44° 91° (E) 597 -3.5 -16.7°
